Wind_Speed
21 22 22 22 23 25 26 26 28 28 28 28 28 26 25 26 25 23 22 21 21 20 19 17 16 16 15 14 13 13 13 12 12 11 11 11 11 11 11 10 10 10 9
20 20 20 20 21 23 24 25 26 27 28 28 28 28 27 27 26 25 23 22 22 22 21 19 18 17 16 16 15 14 14 14 13 13 12 12 12 12 12 11 11 11 10
19 19 18 18 20 21 22 23 24 25 27 28 28 28 27 27 26 26 24 23 22 23 22 21 20 18 18 17 17 16 16 15 15 14 13 13 13 13 13 13 12 12 12
18 17 17 17 17 19 20 21 22 24 25 26 27 28 27 27 27 27 26 24 23 23 23 22 22 20 19 19 19 17 17 16 16 15 15 14 15 14 14 14 14 13 13
17 15 15 16 16 17 18 20 21 23 24 25 26 27 27 27 26 28 28 26 25 24 24 24 23 22 21 20 20 19 18 17 17 17 17 16 16 16 15 15 15 14 14
16 14 14 14 15 15 16 18 20 21 23 25 25 26 26 26 26 26 28 27 26 25 25 25 25 24 23 22 21 21 20 19 19 19 19 18 18 17 17 17 16 16 15
15 14 13 13 14 14 14 16 18 20 21 24 24 25 26 27 27 26 27 28 27 27 26 25 25 25 24 24 23 23 22 21 20 20 20 19 19 19 18 18 17 17 17
15 14 13 12 12 12 12 13 15 18 20 22 23 25 25 26 27 27 27 27 29 28 27 26 26 26 25 25 25 24 24 22 22 22 21 21 21 21 20 19 19 18 18
15 13 12 11 10 10 11 11 12 15 17 19 22 23 24 25 25 27 27 27 28 29 28 27 26 26 26 25 25 25 25 24 23 24 23 22 22 22 22 21 20 20 20
14 13 12 10 9 8 9 10 10 11 14 16 19 22 23 24 25 26 27 27 28 28 27 27 28 28 28 28 26 26 26 25 25 25 25 24 23 23 22 22 22 22 21
14 13 11 9 7 7 7 7 8 10 11 13 16 19 22 23 24 25 26 26 26 27 28 28 28 29 29 29 28 28 27 26 26 26 27 26 25 25 24 24 23 23 23
14 13 11 9 7 6 5 5 6 8 9 11 13 16 19 20 22 23 24 23 24 26 27 27 28 30 30 29 29 30 29 29 29 28 28 28 28 27 26 26 26 25 25
15 13 12 10 7 6 4 4 5 6 7 9 11 13 16 18 20 21 22 22 22 24 26 27 27 28 30 30 30 30 31 31 30 30 30 29 29 29 29 28 28 27 27
15 14 12 11 9 6 4 3 4 5 6 7 9 11 13 16 18 19 20 20 21 22 25 26 26 28 30 31 31 31 31 31 31 32 32 31 30 30 30 30 30 30 29
15 14 13 12 10 8 5 3 3 4 5 6 7 9 11 13 15 17 18 18 19 20 22 24 26 27 29 30 31 32 32 32 33 33 33 33 33 32 32 32 32 31 31
15 15 14 12 11 9 7 5 4 3 3 4 6 8 10 12 13 15 16 18 18 19 20 22 24 25 27 29 30 32 33 33 33 33 34 35 35 34 34 34 35 35 34
16 15 14 13 11 9 8 6 5 4 3 3 4 5 8 10 12 14 15 16 16 17 18 20 22 24 24 26 29 31 33 34 35 35 35 36 37 36 36 37 37 37 37
16 16 15 14 13 11 9 8 6 4 3 2 2 3 5 7 10 12 14 15 16 16 17 18 19 21 22 24 27 29 32 34 35 37 37 37 38 38 38 39 39 39 39
16 16 16 15 13 12 10 9 7 5 4 3 2 2 4 6 7 9 11 13 14 15 16 16 18 19 21 23 25 28 31 33 35 36 36 37 37 37 38 39 40 40 41
16 15 16 15 14 13 12 10 8 7 6 4 4 3 3 5 6 8 9 10 12 13 14 15 17 19 20 21 23 25 27 31 33 35 36 37 37 37 38 39 40 41 41
15 15 15 14 14 13 12 11 9 8 7 6 5 4 4 4 5 7 8 9 11 12 13 14 15 17 18 19 21 23 25 27 30 33 34 36 37 38 38 38 39 41 42
15 15 14 14 13 13 12 11 10 9 8 7 6 6 5 6 6 7 8 9 10 11 12 13 14 15 17 18 19 20 22 25 27 29 31 33 35 37 37 38 38 39 40
14 14 14 14 13 13 12 11 10 9 9 8 8 7 7 7 7 7 8 8 9 10 11 12 13 14 15 17 18 19 20 22 24 26 28 30 32 33 35 36 37 38 38
14 13 13 13 13 13 13 12 11 10 10 9 8 8 8 8 8 8 8 9 9 10 11 12 13 14 15 15 16 17 18 19 21 23 25 27 29 30 31 33 34 35 37
14 14 13 13 13 13 13 13 12 11 10 10 9 9 9 9 9 9 9 10 10 11 12 12 13 13 14 15 15 16 17 18 20 21 22 23 25 26 27 29 30 32 33
15 14 14 14 14 14 14 13 13 12 12 11 11 11 10 10 10 10 10 11 11 11 12 13 13 13 14 15 15 16 17 18 19 20 22 22 23 25 26 27 28 30 32
Wind_Direction
288 281 273 267 260 256 254 252 248 246 244 240 235 232 232 231 230 229 228 227 226 224 223 222 221 218 216 215 214 211 210 209 206 202 200 198 195 195 192 192 191 190 190
293 285 277 268 261 256 253 250 246 244 242 238 234 232 231 229 228 227 227 227 225 224 223 222 221 218 216 215 214 213 211 210 209 207 207 203 200 200 201 200 198 199 199
298 288 280 270 263 258 253 248 244 240 239 237 235 233 230 228 227 224 222 225 226 224 223 222 220 219 218 218 216 215 214 211 212 210 208 206 206 205 206 205 204 207 207
304 294 284 275 267 259 253 249 242 238 236 235 233 231 229 228 227 223 223 224 226 224 222 221 221 220 219 219 219 217 217 216 215 214 212 211 210 210 211 211 211 214 215
308 298 289 280 272 262 254 249 243 238 235 233 232 230 230 229 228 224 223 224 226 225 223 222 223 222 221 220 221 219 220 221 219 218 217 217 216 215 217 217 218 219 221
311 305 294 285 277 267 257 250 244 240 235 232 230 229 231 229 228 225 224 224 224 223 224 223 224 223 223 223 223 222 223 225 223 222 221 220 220 220 221 222 222 223 225
318 309 301 291 282 273 261 251 246 239 235 231 229 227 229 228 228 227 225 224 222 223 225 224 224 224 224 225 226 226 227 229 228 225 223 222 221 222 224 225 225 227 230
327 321 313 301 288 276 265 255 248 241 235 231 229 228 229 227 228 227 225 224 222 224 226 227 225 225 226 227 228 229 230 231 230 227 226 225 224 225 228 229 229 231 234
333 329 323 311 296 281 270 259 251 243 236 232 229 228 227 226 225 226 228 226 224 224 226 227 227 226 227 228 229 230 229 230 231 229 228 228 227 228 230 230 232 234 236
340 337 332 321 303 288 274 260 252 247 238 233 228 226 226 225 225 225 226 227 226 226 228 229 228 229 229 230 231 230 230 233 233 231 231 231 231 232 232 233 234 236 238
348 345 341 337 324 304 282 260 251 249 244 236 229 227 227 226 224 223 225 227 228 227 229 231 229 231 230 231 231 232 233 233 233 233 233 234 234 235 235 236 239 239 240
353 353 352 347 336 318 294 264 249 247 242 236 231 228 228 228 225 224 223 224 228 228 230 232 231 231 231 233 232 234 235 235 235 235 236 236 237 238 238 239 240 240 242
0 0 1 357 351 337 312 279 260 250 244 236 231 229 230 230 228 226 224 225 228 229 231 234 235 234 236 236 234 235 236 236 237 237 237 238 239 240 240 240 241 242 243
2 3 3 4 360 353 334 300 267 255 244 236 233 232 231 231 230 228 228 228 230 232 233 235 236 237 237 238 237 237 238 239 239 239 240 241 241 242 242 243 243 243 245
5 5 5 6 6 6 358 341 299 269 251 241 236 232 231 231 228 229 230 231 234 235 235 236 237 239 240 240 240 240 240 241 241 241 241 241 242 244 244 245 245 245 246
8 7 8 9 10 12 10 356 335 314 278 252 240 235 232 231 227 230 232 234 238 239 242 243 242 243 244 243 242 242 243 242 243 244 244 243 243 244 246 246 247 248 248
10 10 11 12 12 11 9 3 355 342 321 291 254 242 238 234 231 232 236 238 242 244 247 247 246 246 247 246 245 244 243 243 244 245 245 245 244 245 247 248 249 249 250
13 12 12 14 15 15 12 10 6 2 348 332 287 256 244 242 242 240 240 243 247 250 252 255 255 254 254 252 250 248 247 246 246 246 247 248 247 247 248 249 250 250 251
11 14 15 16 17 19 19 19 20 20 11 356 328 287 261 253 249 246 244 247 251 253 255 259 260 258 257 256 255 254 252 250 249 248 249 250 249 249 249 249 250 251 251
9 11 15 17 19 20 22 23 23 21 17 8 356 331 305 278 261 254 252 256 259 260 261 263 266 264 263 261 260 257 255 253 251 251 251 252 251 251 251 250 250 251 252
7 9 11 14 15 16 16 18 18 16 9 2 355 340 322 306 284 270 265 265 267 269 270 267 270 270 270 268 267 263 260 257 255 254 253 253 252 253 253 253 253 252 253
2 4 6 8 10 11 11 10 10 8 5 1 353 341 328 315 305 288 278 275 275 276 276 274 274 274 273 273 272 271 266 260 257 256 256 256 255 254 255 256 256 256 255
354 357 0 2 3 3 5 5 3 1 357 351 346 339 331 320 311 301 292 288 286 286 285 284 280 280 279 277 276 275 272 268 263 259 257 256 256 257 257 258 258 258 257
344 346 349 352 354 354 354 354 356 355 351 345 341 337 327 321 316 306 299 295 294 293 291 288 285 285 284 283 282 281 276 271 268 265 263 261 259 259 259 260 260 260 260
333 336 338 340 343 344 345 345 344 345 344 339 335 332 327 320 316 310 303 299 296 295 294 293 291 289 289 285 284 282 278 276 274 271 269 265 262 263 263 262 262 263 263
324 326 328 329 332 335 336 336 335 334 333 332 330 327 324 321 315 310 306 302 299 297 296 295 296 295 294 292 288 284 282 280 280 277 274 271 267 266 265 266 266 267 266
Height
5798 5797 5798 5798 5800 5801 5803 5806 5809 5812 5816 5819 5823 5826 5829 5832 5836 5839 5842 5844 5846 5849 5852 5854 5856 5858 5861 5863 5865 5868 5870 5872 5874 5876 5878 5880 5882 5884 5887 5889 5891 5893 5895
5793 5792 5792 5793 5794 5795 5797 5799 5802 5805 5809 5813 5817 5820 5824 5827 5831 5834 5837 5840 5843 5845 5848 5851 5854 5856 5859 5861 5864 5866 5868 5870 5872 5875 5877 5879 5881 5884 5886 5888 5890 5892 5894
5788 5787 5787 5787 5788 5789 5791 5793 5796 5799 5803 5806 5810 5814 5818 5821 5826 5829 5832 5835 5839 5842 5845 5848 5851 5853 5856 5859 5861 5864 5866 5869 5871 5873 5875 5878 5880 5882 5885 5887 5889 5891 5893
5784 5783 5782 5782 5783 5784 5786 5788 5790 5793 5796 5800 5804 5808 5812 5816 5820 5824 5827 5831 5835 5838 5841 5845 5848 5850 5853 5856 5859 5862 5864 5866 5869 5871 5874 5876 5878 5881 5883 5885 5887 5889 5891
5780 5779 5778 5778 5778 5779 5780 5782 5785 5787 5790 5794 5798 5802 5806 5810 5815 5819 5823 5827 5830 5834 5838 5841 5844 5847 5850 5853 5856 5859 5862 5864 5866 5869 5871 5874 5876 5878 5881 5883 5885 5887 5889
5777 5776 5775 5774 5774 5775 5775 5777 5779 5782 5785 5788 5792 5797 5801 5805 5809 5814 5818 5822 5826 5830 5833 5837 5840 5843 5846 5850 5853 5856 5859 5861 5864 5866 5869 5871 5873 5876 5878 5880 5883 5885 5887
5775 5773 5772 5771 5770 5771 5771 5772 5774 5777 5780 5783 5787 5791 5795 5799 5803 5808 5812 5817 5821 5825 5829 5832 5836 5839 5843 5846 5849 5852 5855 5858 5860 5863 5866 5868 5871 5873 5875 5878 5880 5882 5884
5773 5771 5769 5768 5767 5767 5768 5769 5770 5772 5775 5778 5782 5786 5790 5795 5799 5803 5807 5812 5816 5820 5824 5827 5831 5835 5838 5842 5845 5848 5851 5854 5857 5860 5862 5865 5867 5870 5872 5874 5877 5879 5881
5771 5769 5767 5765 5764 5764 5764 5765 5766 5768 5770 5773 5777 5781 5785 5790 5793 5798 5802 5807 5811 5815 5818 5822 5826 5830 5834 5837 5840 5844 5847 5850 5853 5855 5858 5861 5863 5866 5868 5871 5873 5875 5877
5770 5767 5765 5763 5762 5761 5762 5762 5763 5765 5767 5769 5772 5776 5780 5784 5788 5793 5797 5801 5805 5809 5813 5817 5821 5825 5829 5832 5835 5839 5842 5845 5848 5851 5854 5857 5859 5862 5864 5867 5869 5871 5873
5770 5766 5763 5761 5760 5759 5760 5760 5761 5762 5764 5766 5769 5772 5776 5780 5783 5788 5792 5796 5800 5804 5808 5812 5815 5819 5822 5826 5830 5833 5837 5840 5843 5846 5849 5852 5854 5857 5859 5862 5864 5866 5868
5769 5766 5763 5761 5759 5758 5758 5758 5759 5760 5762 5763 5766 5769 5772 5776 5779 5783 5787 5791 5795 5799 5803 5806 5810 5813 5817 5820 5824 5828 5831 5834 5837 5840 5843 5846 5849 5852 5854 5856 5859 5861 5863
5769 5766 5763 5761 5759 5758 5758 5758 5758 5759 5760 5761 5763 5766 5769 5772 5775 5779 5783 5787 5790 5794 5797 5801 5804 5807 5811 5814 5818 5821 5825 5828 5831 5834 5837 5840 5843 5846 5848 5851 5853 5855 5858
5770 5767 5764 5762 5760 5758 5757 5757 5758 5758 5759 5760 5762 5764 5766 5769 5772 5775 5779 5783 5786 5789 5792 5795 5798 5801 5805 5808 5812 5815 5818 5821 5825 5828 5831 5834 5837 5839 5842 5844 5847 5849 5851
5771 5768 5765 5762 5760 5759 5758 5757 5757 5758 5758 5759 5760 5762 5764 5767 5769 5772 5775 5779 5782 5784 5787 5790 5793 5795 5798 5801 5805 5808 5811 5814 5817 5820 5823 5826 5829 5832 5835 5837 5840 5842 5844
5772 5769 5766 5763 5761 5759 5758 5757 5757 5757 5757 5758 5759 5760 5762 5764 5767 5769 5772 5775 5778 5780 5782 5784 5787 5789 5791 5794 5798 5801 5804 5807 5810 5813 5816 5819 5821 5824 5827 5830 5832 5835 5837
5773 5770 5767 5764 5762 5760 5759 5758 5757 5757 5757 5757 5758 5759 5760 5762 5764 5767 5769 5771 5773 5776 5778 5779 5781 5783 5785 5787 5790 5793 5796 5799 5802 5805 5807 5810 5813 5816 5819 5821 5824 5826 5828
5774 5771 5768 5766 5763 5761 5760 5758 5757 5757 5756 5757 5757 5758 5759 5760 5762 5764 5766 5768 5770 5771 5773 5774 5775 5777 5779 5781 5783 5785 5788 5791 5793 5796 5799 5801 5804 5806 5809 5812 5814 5817 5819
5776 5773 5770 5767 5765 5762 5761 5759 5758 5757 5757 5757 5757 5757 5758 5759 5760 5761 5763 5764 5766 5767 5769 5770 5770 5772 5773 5774 5776 5778 5780 5782 5785 5787 5789 5792 5794 5797 5799 5802 5804 5806 5809
5777 5774 5771 5768 5766 5764 5762 5760 5759 5758 5758 5757 5757 5757 5757 5757 5758 5759 5760 5762 5763 5764 5765 5765 5766 5767 5767 5768 5769 5770 5772 5774 5776 5778 5780 5782 5785 5787 5789 5791 5794 5796 5798
5778 5775 5772 5770 5768 5765 5763 5762 5760 5759 5758 5757 5757 5757 5757 5756 5757 5757 5758 5759 5759 5760 5761 5761 5762 5762 5762 5762 5763 5764 5765 5766 5768 5769 5771 5773 5775 5777 5779 5781 5783 5785 5787
5778 5776 5773 5771 5769 5766 5764 5762 5761 5760 5759 5758 5757 5757 5756 5756 5755 5755 5756 5756 5756 5757 5757 5757 5757 5757 5757 5757 5757 5757 5758 5759 5760 5761 5762 5764 5766 5767 5769 5771 5773 5774 5776
5778 5776 5774 5771 5769 5767 5765 5763 5761 5760 5759 5758 5757 5756 5755 5755 5754 5754 5754 5754 5754 5753 5754 5753 5753 5752 5752 5752 5752 5752 5751 5752 5752 5753 5754 5755 5756 5758 5759 5761 5762 5764 5765
5778 5776 5773 5771 5769 5767 5765 5763 5761 5760 5758 5757 5756 5755 5754 5753 5752 5752 5752 5751 5751 5751 5750 5750 5749 5748 5748 5747 5747 5747 5746 5746 5746 5745 5746 5747 5748 5749 5750 5751 5752 5754 5755
5777 5774 5772 5770 5768 5766 5764 5762 5761 5759 5758 5756 5755 5754 5753 5752 5751 5750 5750 5749 5749 5748 5747 5747 5746 5745 5744 5743 5742 5741 5741 5740 5740 5739 5739 5739 5740 5741 5742 5742 5743 5744 5745
5774 5772 5771 5769 5767 5765 5763 5761 5759 5758 5756 5755 5754 5752 5751 5750 5749 5748 5747 5747 5746 5745 5744 5743 5742 5741 5740 5739 5737 5736 5736 5735 5734 5734 5733 5733 5733 5734 5734 5735 5735 5735 5735